Regional Weather Roundup
Issued by NWS Austin/San Antonio, TX

Home | Current Version | Previous Version | Text Only | Print | Product List | Glossary On
Versions: 1 2 3 4 5 6 7 8 9 10 11 12 13 14 15 16 17 18 19 20 21 22 23 24 25 26 27 28 29 30 31 32 33 34 35 36 37 38 39 40 41 42 43 44 45 46 47 48 49 50
274
ASUS44 KEWX 180010
RWREWX
SOUTH TEXAS REGIONAL WEATHER ROUNDUP
NATIONAL WEATHER SERVICE AUSTIN/SAN ANTONIO TX
600 PM CST SUN FEB 17 2019

NOTE: "FAIR" INDICATED FEW OR NO CLOUDS BELOW 12,000 FEET WITH NO
SIGNIFICANT WEATHER AND/OR OBSTRUCTIONS TO VISIBILITY.

* - THESE STATIONS ARE NOT NWS OR FAA STATIONS...AND ARE NOT SUBJECT
    TO NWS AND FAA QUALITY CONTROL.

TXZ171-172-183>190-180100-
TEXAS HILL COUNTRY AND EDWARDS PLATEAU

CITY           SKY/WX    TMP DP  RH WIND       PRES   REMARKS
JUNCTION       CLOUDY    58  28  32 NE12      29.91S
6HR MIN TEMP:  58; 6HR MAX TEMP:  64;

*LLANO         CLEAR     57  32  38 N6        29.98R
BURNET         CLEAR     56  32  40 NE10      29.95R
6HR MIN TEMP:  55; 6HR MAX TEMP:  61;

*HORSESHOE BAY CLEAR     58  34  40 NE6       29.94R
6HR MIN TEMP:  57; 6HR MAX TEMP:  62;

*KERRVILLE     CLEAR     61  32  33 NE12      29.89S
6HR MIN TEMP:  61; 6HR MAX TEMP:  66;

*FREDERICKSBRG CLEAR     56  33  42 NE12      29.91R
6HR MIN TEMP:  56; 6HR MAX TEMP:  62;

*ROCKSPRINGS   CLOUDY    61  23  23 NE7       29.92S
*BOERNE STAGE  CLEAR     59  32  36 NE10      29.90R
*CASTROVILLE   CLEAR     66  30  25 NE12      29.87R
HONDO          CLEAR     69  31  24 NE13      29.85R
6HR MIN TEMP:  69; 6HR MAX TEMP:  79;

*UVALDE        CLEAR     69  31  24 E9        29.84R
6HR MIN TEMP:  69; 6HR MAX TEMP:  74;

DEL RIO        PTCLDY    72  26  18 CALM      29.82R
6HR MIN TEMP:  68; 6HR MAX TEMP:  75;

LAUGHLIN AFB   PTCLDY    70  31  24 CALM      29.82R
6HR MIN TEMP:  69; 6HR MAX TEMP:  75;

CARRIZO SPRGS  CLEAR     73  30  20 E8        29.80R
*FAITH RANCH   CLEAR     77  28  16 NE7       29.80R
$$

TXZ173-191>194-202-209-217>225-228-180100-
CENTRAL AND SOUTH CENTRAL TEXAS

CITY           SKY/WX    TMP DP  RH WIND       PRES   REMARKS
GEORGETOWN     CLEAR     54  36  50 N6        29.96R
6HR MIN TEMP:  52; 6HR MAX TEMP:  59;

AUSTIN/BERGSTM MOCLDY    58  37  45 N17       29.92R
6HR MIN TEMP:  57; 6HR MAX TEMP:  63;

AUSTIN/MABRY   CLEAR     57  33  40 NE8G18    29.93R
6HR MIN TEMP:  57; 6HR MAX TEMP:  63;

*AUSTIN/EXEC   CLEAR     55  36  47 NE14      29.93R
*LAGO VISTA    CLEAR     56  24  29 NE12      29.93R
6HR MIN TEMP:  54; 6HR MAX TEMP:  61;

SAN MARCOS     CLEAR     58  38  47 NE16      29.92R
6HR MIN TEMP:  58; 6HR MAX TEMP:  65;

NEW BRAUNFELS  CLEAR     61  39  44 NE12      29.88R
6HR MIN TEMP:  61; 6HR MAX TEMP:  69;

RANDOLPH AFB   CLEAR     63  35  36 NE14      29.88R
6HR MIN TEMP:  63; 6HR MAX TEMP:  70;

PT SAN ANTONIO CLEAR     65  34  32 NE12      29.85R
6HR MIN TEMP:  65; 6HR MAX TEMP:  72;

SAN ANTONIO    MOCLDY    64  34  32 NE13G21   29.88R
6HR MIN TEMP:  64; 6HR MAX TEMP:  71;

STINSON FIELD  CLEAR     67  29  24 NE16      29.85R
6HR MIN TEMP:  67; 6HR MAX TEMP:  75;

*LA GRANGE     CLEAR     57  41  54 N10       29.90R
6HR MIN TEMP:  57; 6HR MAX TEMP:  62;

*GIDDINGS      CLEAR     59  42  53 N12       29.91S
6HR MIN TEMP:  57; 6HR MAX TEMP:  61;

*GONZALES      CLEAR     58  42  54 N10G17    29.89R
6HR MIN TEMP:  58; 6HR MAX TEMP:  64;

$$

TXZ163>164-176>182-195>201-210>213-226-227-235-180100-
SOUTHEAST TEXAS

CITY           SKY/WX    TMP DP  RH WIND       PRES   REMARKS
COLLEGE STN    CLEAR     56  38  50 N15G23    29.92R
6HR MIN TEMP:  54; 6HR MAX TEMP:  59;

*BRYAN         CLEAR     54  37  53 N8        29.94R
6HR MIN TEMP:  51; 6HR MAX TEMP:  57;

*CALDWELL      CLEAR     55  39  55 N8        29.93R
6HR MIN TEMP:  52; 6HR MAX TEMP:  57;

*CROCKETT        N/A     52  37  58 N5        29.97R
*BRENHAM       CLEAR     56  43  60 N9        29.92R
6HR MIN TEMP:  56; 6HR MAX TEMP:  60;

HUNTSVILLE     MOCLDY    51  41  68 VRB5      29.92R
6HR MIN TEMP:  47; 6HR MAX TEMP:  55;

CONROE         CLEAR     54  43  66 N9        29.91R
6HR MIN TEMP:  54; 6HR MAX TEMP:  61;

HOUSTON BUSH   PTCLDY    59  46  62 N13       29.88R
6HR MIN TEMP:  56; 6HR MAX TEMP:  63;

HOUSTON HOBBY  MOCLDY    60  46  59 N17       29.86R
6HR MIN TEMP:  57; 6HR MAX TEMP:  62;

*HOUSTON SW AP FAIR      59  49  68 N8        29.87R
6HR MIN TEMP:  56; 6HR MAX TEMP:  61;

PEARLAND       FAIR      59  50  72 NE13      29.87R
6HR MIN TEMP:  56; 6HR MAX TEMP:  62; 6HR PCP:  0.01;

HOUSTON HOOKS  FAIR      57  45  64 N8        29.89R
6HR MIN TEMP:  55; 6HR MAX TEMP:  61;

ELLINGTON FLD  NOT AVBL
SUGAR LAND     FAIR      60  46  59 N14       29.86R
6HR MIN TEMP:  58; 6HR MAX TEMP:  65; 6HR PCP: TRACE;

*HOUSTON EXEC  FAIR      57  45  62 N13       29.89R
*CLEVELAND MUN FAIR      55  46  71 N7        29.91R HAZE
6HR MIN TEMP:  55; 6HR MAX TEMP:  59;

*WHARTON       CLEAR     58  44  59 N12       29.88R
6HR MIN TEMP:  56; 6HR MAX TEMP:  64;

*COLUMBUS      FAIR      58  41  53 N10G16    29.90R
6HR MIN TEMP:  58; 6HR MAX TEMP:  62;

*EAGLE LAKE    CLEAR     57  43  59 N13G18    29.89
6HR MIN TEMP:  56; 6HR MAX TEMP:  61;

$$

TXZ214>216-236>238-180100-
THE UPPER TEXAS COAST

CITY           SKY/WX    TMP DP  RH WIND       PRES   REMARKS
*ORANGE        CLOUDY    52  51  97 N10G16    29.90R
6HR MIN TEMP:  52; 6HR MAX TEMP:  68; 6HR PCP:  0.04;

PORT ARTHUR    CLOUDY    53  48  83 N17       29.87R
6HR MIN TEMP:  53; 6HR MAX TEMP:  68; 6HR PCP:  0.09;

GALVESTON      MOCLDY    56  49  77 N23G33    29.85R
6HR MIN TEMP:  56; 6HR MAX TEMP:  65; 6HR PCP:  0.03;

ANGLETON       FAIR      60  51  72 N10       29.84R
6HR MIN TEMP:  57; 6HR MAX TEMP:  64; 6HR PCP:  0.01;

*BAY CITY      CLEAR     62  51  66 N10G20    29.84R
PALACIOS       CLEAR     62  49  62 N18       29.83R
6HR MIN TEMP:  61; 6HR MAX TEMP:  67;

$$

TXZ229>234-239>247-180100-
TEXAS COASTAL BEND AND RIO GRANDE PLAINS

CITY           SKY/WX    TMP DP  RH WIND       PRES   REMARKS
VICTORIA       CLEAR     61  43  51 N15       29.85R
6HR MIN TEMP:  61; 6HR MAX TEMP:  69;

*BEEVILLE      CLEAR     70  39  32 NE14G21   29.83R
6HR MIN TEMP:  70; 6HR MAX TEMP:  78;

ROCKPORT       CLEAR     66  50  56 N16       29.79R
6HR MIN TEMP:  64; 6HR MAX TEMP:  71;

*PORT ARANSAS  CLEAR     66  52  60 N18G24    29.81R
6HR MIN TEMP:  63; 6HR MAX TEMP:  69;

*PORT LAVACA   CLEAR     63  50  61 N14       29.85R
6HR MIN TEMP:  63; 6HR MAX TEMP:  70;

*INGLESIDE     CLEAR     69  50  51 NE20G25   29.78S
CORPUS CHRISTI PTCLDY    70  47  43 NE15      29.79R
6HR MIN TEMP:  68; 6HR MAX TEMP:  78;

CORPUS NAS     CLEAR     69  52  54 NE16      29.79R
6HR MIN TEMP:  67; 6HR MAX TEMP:  74;

*ROBSTOWN      NOT AVBL
ALICE          CLEAR     72  42  34 NE15      29.79R
6HR MIN TEMP:  72; 6HR MAX TEMP:  80;

KINGSVILLE NAS PTCLDY    73  46  38 NE14G22   29.79R
6HR MIN TEMP:  73; 6HR MAX TEMP:  80;

COTULLA        CLEAR     72  32  23 NE15      29.81R
6HR MIN TEMP:  70; 6HR MAX TEMP:  77;

LAREDO         CLEAR     78  33  19 NE13      29.79R
6HR MIN TEMP:  75; 6HR MAX TEMP:  82;

$$

TXZ248>255-180100-
DEEP SOUTH TEXAS

CITY           SKY/WX    TMP DP  RH WIND       PRES   REMARKS
BROWNSVILLE    CLOUDY    66  62  87 N10G22    29.77R
6HR MIN TEMP:  66; 6HR MAX TEMP:  76; 6HR PCP: TRACE;

PORT ISABEL    CLOUDY    63  58  83 N18G25    29.76R
6HR MIN TEMP:  63; 6HR MAX TEMP:  68; 6HR PCP: TRACE;

HARLINGEN



USA.gov is the U.S. government's official web portal to all federal, state and local government web resources and services.